TimeEDT,TemperatureF,Dew PointF,Humidity,Sea Level PressureIn,VisibilityMPH,Wind Direction,Wind SpeedMPH,Gust SpeedMPH,PrecipitationIn,Events,Conditions,WindDirDegrees,DateUTC
12:53 AM,82.9,73.9,74,29.97,10.0,East,11.5,-,N/A,,Unknown,90,2013-08-02 04:53:00
1:53 AM,82.9,73.0,72,29.96,10.0,East,6.9,-,N/A,,Unknown,90,2013-08-02 05:53:00
2:53 AM,82.0,73.0,74,29.94,10.0,East,5.8,-,N/A,,Unknown,80,2013-08-02 06:53:00
3:53 AM,82.9,73.0,72,29.94,10.0,ESE,3.5,-,N/A,,Unknown,120,2013-08-02 07:53:00
4:53 AM,82.0,73.9,76,29.94,10.0,Calm,Calm,-,N/A,,Unknown,0,2013-08-02 08:53:00
5:53 AM,81.0,73.9,79,29.95,10.0,Calm,Calm,-,N/A,,Unknown,0,2013-08-02 09:53:00
6:53 AM,80.1,75.0,85,29.96,10.0,NW,5.8,-,N/A,,Unknown,320,2013-08-02 10:53:00
7:53 AM,81.0,75.0,82,29.96,10.0,NW,3.5,-,N/A,,Scattered Clouds,320,2013-08-02 11:53:00
8:53 AM,84.0,73.9,72,29.99,10.0,WNW,5.8,-,N/A,,Scattered Clouds,300,2013-08-02 12:53:00
9:53 AM,84.9,73.0,67,30.01,10.0,Calm,Calm,-,N/A,,Scattered Clouds,0,2013-08-02 13:53:00
10:53 AM,87.1,73.9,65,30.01,10.0,WSW,3.5,-,N/A,,Scattered Clouds,250,2013-08-02 14:53:00
11:53 AM,88.0,72.0,59,30.03,10.0,NW,4.6,-,N/A,,Mostly Cloudy,310,2013-08-02 15:53:00
12:53 PM,89.1,72.0,57,30.03,10.0,West,5.8,-,N/A,,Mostly Cloudy,270,2013-08-02 16:53:00
1:53 PM,89.1,75.0,63,30.02,10.0,SSE,6.9,-,N/A,,Mostly Cloudy,150,2013-08-02 17:53:00
2:53 PM,89.1,75.9,65,30.00,10.0,SE,12.7,-,N/A,,Mostly Cloudy,140,2013-08-02 18:53:00
3:53 PM,88.0,75.9,67,30.00,10.0,SE,12.7,-,N/A,,Unknown,140,2013-08-02 19:53:00
4:53 PM,87.1,75.9,69,29.99,10.0,SSE,12.7,-,N/A,,Scattered Clouds,150,2013-08-02 20:53:00
5:53 PM,87.1,75.9,69,30.00,10.0,SE,11.5,-,N/A,,Scattered Clouds,140,2013-08-02 21:53:00
6:53 PM,84.0,75.9,76,30.01,10.0,East,10.4,-,N/A,Thunderstorm,Mostly Cloudy,80,2013-08-02 22:53:00
7:42 PM,78.8,73.4,83,30.05,1.8,West,4.6,-,0.12,Rain-Thunderstorm,Heavy Rain,280,2013-08-02 23:42:00
7:53 PM,78.1,71.1,79,30.05,5.0,West,3.5,-,0.15,Rain-Thunderstorm,Light Rain,280,2013-08-02 23:53:00
8:53 PM,78.1,75.0,90,30.06,10.0,Calm,Calm,-,N/A,,Mostly Cloudy,0,2013-08-03 00:53:00
9:53 PM,80.1,75.0,85,30.07,10.0,Calm,Calm,-,N/A,,Unknown,0,2013-08-03 01:53:00
10:53 PM,81.0,73.9,79,30.07,10.0,SSE,5.8,-,N/A,,Unknown,150,2013-08-03 02:53:00
11:53 PM,82.0,75.9,82,30.07,10.0,South,3.5,-,N/A,,Unknown,170,2013-08-03 03:53:00